Location: Academy at Carrie F Thomas
(32.8490°N, 97.2053°W)
Time: 20:02:03
(UTC+00:00)

Cosmos 1515 Rocket - Pass Details

Date: 02 July 2022
Orbit: 604 x 630 km, 82.5° (Epoch: 17 August)

Event Time Altitude Azimuth Distance (km) Brightness Sun altitude
Rises 08:17:48 0° 20° (NNE) 2,891 8.2 -28.8°
Reaches altitude 10° 08:21:48 10° 57° (ENE) 1,973 6.9 -28.4°
Maximum altitude 08:23:01 11° 73° (ENE) 1,902 6.6 -28.3°
Drops below altitude 10° 08:24:15 10° 90° (E) 1,965 6.4 -28.1°
Enters shadow 08:26:24 - 113° (ESE) 2,359 6.6 -27.9°
